Year,Month,Day,Hour,Minute,Value (Times are PST for temperature in C)
2019,03,21,00,00,12.20
2019,03,21,00,01,12.20
2019,03,21,00,02,12.20
2019,03,21,00,03,12.20
2019,03,21,00,04,12.10
2019,03,21,00,05,12.10
2019,03,21,00,06,12.10
2019,03,21,00,07,12.00
2019,03,21,00,08,12.00
2019,03,21,00,09,11.90
2019,03,21,00,10,11.90
2019,03,21,00,11,11.90
2019,03,21,00,12,11.80
2019,03,21,00,13,11.80
2019,03,21,00,14,11.80
2019,03,21,00,15,11.70
2019,03,21,00,16,11.70
2019,03,21,00,17,11.60
2019,03,21,00,18,11.60
2019,03,21,00,19,11.50
2019,03,21,00,20,11.40
2019,03,21,00,21,11.30
2019,03,21,00,22,11.30
2019,03,21,00,23,11.30
2019,03,21,00,24,11.20
2019,03,21,00,25,11.10
2019,03,21,00,26,11.10
2019,03,21,00,27,11.10
2019,03,21,00,28,11.00
2019,03,21,00,29,11.00
2019,03,21,00,30,10.90
2019,03,21,00,31,10.90
2019,03,21,00,32,10.90
2019,03,21,00,33,10.80
2019,03,21,00,34,10.80
2019,03,21,00,35,10.80
2019,03,21,00,36,10.80
2019,03,21,00,37,10.80
2019,03,21,00,38,10.70
2019,03,21,00,39,10.70
2019,03,21,00,40,10.70
2019,03,21,00,41,10.70
2019,03,21,00,42,10.70
2019,03,21,00,43,10.60
2019,03,21,00,44,10.60
2019,03,21,00,45,10.60
2019,03,21,00,46,10.60
2019,03,21,00,47,10.70
2019,03,21,00,48,10.80
2019,03,21,00,49,10.90
2019,03,21,00,50,10.90
2019,03,21,00,51,10.90
2019,03,21,00,52,10.90
2019,03,21,00,53,10.90
2019,03,21,00,54,10.90
2019,03,21,00,55,10.90
2019,03,21,00,56,11.00
2019,03,21,00,57,10.90
2019,03,21,00,58,11.00
2019,03,21,00,59,11.00
2019,03,21,01,00,11.10
2019,03,21,01,01,11.00
2019,03,21,01,02,11.00
2019,03,21,01,03,11.10
2019,03,21,01,04,11.20
2019,03,21,01,05,11.20
2019,03,21,01,06,11.20
2019,03,21,01,07,11.20
2019,03,21,01,08,11.20
2019,03,21,01,09,11.10
2019,03,21,01,10,11.00
2019,03,21,01,11,10.90
2019,03,21,01,12,10.80
2019,03,21,01,13,10.80
2019,03,21,01,14,10.80
2019,03,21,01,15,10.70
2019,03,21,01,16,10.50
2019,03,21,01,17,10.30
2019,03,21,01,18,10.20
2019,03,21,01,19,10.00
2019,03,21,01,20,10.00
2019,03,21,01,21,9.80
2019,03,21,01,22,9.70
2019,03,21,01,23,9.70
2019,03,21,01,24,9.60
2019,03,21,01,25,9.50
2019,03,21,01,26,9.40
2019,03,21,01,27,9.40
2019,03,21,01,28,9.40
2019,03,21,01,29,9.40
2019,03,21,01,30,9.50
2019,03,21,01,31,9.50
2019,03,21,01,32,9.50
2019,03,21,01,33,9.50
2019,03,21,01,34,9.60
2019,03,21,01,35,9.60
2019,03,21,01,36,9.70
2019,03,21,01,37,9.80
2019,03,21,01,38,9.80
2019,03,21,01,39,9.80
2019,03,21,01,40,9.70
2019,03,21,01,41,9.70
2019,03,21,01,42,9.60
2019,03,21,01,43,9.60
2019,03,21,01,44,9.50
2019,03,21,01,45,9.50
2019,03,21,01,46,9.40
2019,03,21,01,47,9.40
2019,03,21,01,48,9.40
2019,03,21,01,49,9.30
2019,03,21,01,50,9.30
2019,03,21,01,51,9.30
2019,03,21,01,52,9.40
2019,03,21,01,53,9.40
2019,03,21,01,54,9.40
2019,03,21,01,55,9.40
2019,03,21,01,56,9.40
2019,03,21,01,57,9.30
2019,03,21,01,58,9.20
2019,03,21,01,59,9.10
2019,03,21,02,00,9.10
2019,03,21,02,01,9.00
2019,03,21,02,02,8.90
2019,03,21,02,03,8.80
2019,03,21,02,04,8.80
2019,03,21,02,05,8.80
2019,03,21,02,06,8.70
2019,03,21,02,07,8.60
2019,03,21,02,08,8.60
2019,03,21,02,09,8.60
2019,03,21,02,10,8.60
2019,03,21,02,11,8.50
2019,03,21,02,12,8.50
2019,03,21,02,13,8.50
2019,03,21,02,14,8.40
2019,03,21,02,15,8.40
2019,03,21,02,16,8.40
2019,03,21,02,17,8.40
2019,03,21,02,18,8.40
2019,03,21,02,19,8.40
2019,03,21,02,20,8.40
2019,03,21,02,21,8.40
2019,03,21,02,22,8.40
2019,03,21,02,23,8.40
2019,03,21,02,24,8.30
2019,03,21,02,25,8.30
2019,03,21,02,26,8.30
2019,03,21,02,27,8.30
2019,03,21,02,28,8.20
2019,03,21,02,29,8.20
2019,03,21,02,30,8.20
2019,03,21,02,31,8.10
2019,03,21,02,32,8.10
2019,03,21,02,33,8.10
2019,03,21,02,34,8.10
2019,03,21,02,35,8.10
2019,03,21,02,36,8.10
2019,03,21,02,37,8.10
2019,03,21,02,38,8.10
2019,03,21,02,39,8.10
2019,03,21,02,40,8.10
2019,03,21,02,41,8.10
2019,03,21,02,42,8.00
2019,03,21,02,43,8.00
2019,03,21,02,44,8.00
2019,03,21,02,45,8.00
2019,03,21,02,46,7.90
2019,03,21,02,47,7.90
2019,03,21,02,48,8.00
2019,03,21,02,49,8.00
2019,03,21,02,50,8.00
2019,03,21,02,51,8.00
2019,03,21,02,52,8.00
2019,03,21,02,53,8.00
2019,03,21,02,54,7.90
2019,03,21,02,55,8.00
2019,03,21,02,56,8.10
2019,03,21,02,57,8.20
2019,03,21,02,58,8.20
2019,03,21,02,59,8.30
2019,03,21,03,00,8.30
2019,03,21,03,01,8.30
2019,03,21,03,02,8.30
2019,03,21,03,03,8.30
2019,03,21,03,04,8.30
2019,03,21,03,05,8.30
2019,03,21,03,06,8.30
2019,03,21,03,07,8.30
2019,03,21,03,08,8.30
2019,03,21,03,09,8.20
2019,03,21,03,10,8.20
2019,03,21,03,11,8.20
2019,03,21,03,12,8.10
2019,03,21,03,13,8.10
2019,03,21,03,14,8.00
2019,03,21,03,15,7.90
2019,03,21,03,16,7.90
2019,03,21,03,17,7.90
2019,03,21,03,18,7.80
2019,03,21,03,19,7.80
2019,03,21,03,20,7.80
2019,03,21,03,21,7.80
2019,03,21,03,22,7.80
2019,03,21,03,23,7.70
2019,03,21,03,24,7.70
2019,03,21,03,25,7.70
2019,03,21,03,26,7.70
2019,03,21,03,27,7.70
2019,03,21,03,28,7.70
2019,03,21,03,29,7.70
2019,03,21,03,30,7.70
2019,03,21,03,31,7.70
2019,03,21,03,32,7.70
2019,03,21,03,33,7.70
2019,03,21,03,34,7.70
2019,03,21,03,35,7.70
2019,03,21,03,36,7.60
2019,03,21,03,37,7.60
2019,03,21,03,38,7.60
2019,03,21,03,39,7.60
2019,03,21,03,40,7.60
2019,03,21,03,41,7.60
2019,03,21,03,42,7.50
2019,03,21,03,43,7.50
2019,03,21,03,44,7.50
2019,03,21,03,45,7.50
2019,03,21,03,46,7.40
2019,03,21,03,47,7.40
2019,03,21,03,48,7.40
2019,03,21,03,49,7.40
2019,03,21,03,50,7.40
2019,03,21,03,51,7.30
2019,03,21,03,52,7.30
2019,03,21,03,53,7.30
2019,03,21,03,54,7.30
2019,03,21,03,55,7.30
2019,03,21,03,56,7.30
2019,03,21,03,57,7.20
2019,03,21,03,58,7.20
2019,03,21,03,59,7.20
2019,03,21,04,00,7.20
2019,03,21,04,01,7.20
2019,03,21,04,02,7.20
2019,03,21,04,03,7.20
2019,03,21,04,04,7.20
2019,03,21,04,05,7.20
2019,03,21,04,06,7.20
2019,03,21,04,07,7.20
2019,03,21,04,08,7.20
2019,03,21,04,09,7.20
2019,03,21,04,10,7.20
2019,03,21,04,11,7.10
2019,03,21,04,12,7.10
2019,03,21,04,13,7.10
2019,03,21,04,14,7.20
2019,03,21,04,15,7.20
2019,03,21,04,16,7.20
2019,03,21,04,17,7.30
2019,03,21,04,18,7.20
2019,03,21,04,19,7.20
2019,03,21,04,20,7.20
2019,03,21,04,21,7.20
2019,03,21,04,22,7.20
2019,03,21,04,23,7.10
2019,03,21,04,24,7.10
2019,03,21,04,25,7.10
2019,03,21,04,26,7.10
2019,03,21,04,27,7.10
2019,03,21,04,28,7.10
2019,03,21,04,29,7.10
2019,03,21,04,30,7.10
2019,03,21,04,31,7.10
2019,03,21,04,32,7.10
2019,03,21,04,33,7.00
2019,03,21,04,34,7.00
2019,03,21,04,35,7.00
2019,03,21,04,36,7.00
2019,03,21,04,37,6.90
2019,03,21,04,38,6.90
2019,03,21,04,39,6.90
2019,03,21,04,40,7.00
2019,03,21,04,41,7.00
2019,03,21,04,42,7.10
2019,03,21,04,43,7.10
2019,03,21,04,44,7.20
2019,03,21,04,45,7.20
2019,03,21,04,46,7.20
2019,03,21,04,47,7.20
2019,03,21,04,48,7.20
2019,03,21,04,49,7.10
2019,03,21,04,50,7.10
2019,03,21,04,51,7.10
2019,03,21,04,52,7.10
2019,03,21,04,53,7.20
2019,03,21,04,54,7.20
2019,03,21,04,55,7.20
2019,03,21,04,56,7.10
2019,03,21,04,57,7.10
2019,03,21,04,58,7.10
2019,03,21,04,59,7.00
2019,03,21,05,00,6.90
2019,03,21,05,01,6.90
2019,03,21,05,02,6.90
2019,03,21,05,03,6.90
2019,03,21,05,04,6.90
2019,03,21,05,05,7.00
2019,03,21,05,06,7.10
2019,03,21,05,07,7.10
2019,03,21,05,08,7.20
2019,03,21,05,09,7.30
2019,03,21,05,10,7.30
2019,03,21,05,11,7.30
2019,03,21,05,12,7.30
2019,03,21,05,13,7.30
2019,03,21,05,14,7.30
2019,03,21,05,15,7.30
2019,03,21,05,16,7.30
2019,03,21,05,17,7.30
2019,03,21,05,18,7.40
2019,03,21,05,19,7.40
2019,03,21,05,20,7.50
2019,03,21,05,21,7.50
2019,03,21,05,22,7.50
2019,03,21,05,23,7.40
2019,03,21,05,24,7.40
2019,03,21,05,25,7.40
2019,03,21,05,26,7.40
2019,03,21,05,27,7.40
2019,03,21,05,28,7.30
2019,03,21,05,29,7.20
2019,03,21,05,30,7.20
2019,03,21,05,31,7.10
2019,03,21,05,32,7.00
2019,03,21,05,33,6.90
2019,03,21,05,34,6.80
2019,03,21,05,35,6.70
2019,03,21,05,36,6.60
2019,03,21,05,37,6.60
2019,03,21,05,38,6.50
2019,03,21,05,39,6.50
2019,03,21,05,40,6.50
2019,03,21,05,41,6.50
2019,03,21,05,42,6.40
2019,03,21,05,43,6.40
2019,03,21,05,44,6.40
2019,03,21,05,45,6.40
2019,03,21,05,46,6.40
2019,03,21,05,47,6.40
2019,03,21,05,48,6.40
2019,03,21,05,49,6.30
2019,03,21,05,50,6.30
2019,03,21,05,51,6.40
2019,03,21,05,52,6.50
2019,03,21,05,53,6.60
2019,03,21,05,54,6.60
2019,03,21,05,55,6.70
2019,03,21,05,56,6.70
2019,03,21,05,57,6.80
2019,03,21,05,58,6.80
2019,03,21,05,59,6.80
2019,03,21,06,00,6.80
2019,03,21,06,01,6.80
2019,03,21,06,02,6.80
2019,03,21,06,03,6.80
2019,03,21,06,04,6.80
2019,03,21,06,05,6.80
2019,03,21,06,06,6.80
2019,03,21,06,07,6.90
2019,03,21,06,08,6.90
2019,03,21,06,09,6.90
2019,03,21,06,10,6.80
2019,03,21,06,11,6.80
2019,03,21,06,12,6.80
2019,03,21,06,13,6.70
2019,03,21,06,14,6.60
2019,03,21,06,15,6.60
2019,03,21,06,16,6.50
2019,03,21,06,17,6.40
2019,03,21,06,18,6.40
2019,03,21,06,19,6.30
2019,03,21,06,20,6.30
2019,03,21,06,21,6.30
2019,03,21,06,22,6.30
2019,03,21,06,23,6.30
2019,03,21,06,24,6.30
2019,03,21,06,25,6.30
2019,03,21,06,26,6.20
2019,03,21,06,27,6.20
2019,03,21,06,28,6.30
2019,03,21,06,29,6.40
2019,03,21,06,30,6.40
2019,03,21,06,31,6.50
2019,03,21,06,32,6.60
2019,03,21,06,33,6.70
2019,03,21,06,34,6.90
2019,03,21,06,35,7.00
2019,03,21,06,36,7.10
2019,03,21,06,37,7.20
2019,03,21,06,38,7.30
2019,03,21,06,39,7.30
2019,03,21,06,40,7.50
2019,03,21,06,41,7.60
2019,03,21,06,42,7.70
2019,03,21,06,43,7.80
2019,03,21,06,44,7.80
2019,03,21,06,45,7.80
2019,03,21,06,46,7.80
2019,03,21,06,47,7.80
2019,03,21,06,48,7.80
2019,03,21,06,49,7.80
2019,03,21,06,50,7.70
2019,03,21,06,51,7.60
2019,03,21,06,52,7.60
2019,03,21,06,53,7.50
2019,03,21,06,54,7.40
2019,03,21,06,55,7.40
2019,03,21,06,56,7.30
2019,03,21,06,57,7.30
2019,03,21,06,58,7.20
2019,03,21,06,59,7.10
2019,03,21,07,00,7.10
2019,03,21,07,01,7.10
2019,03,21,07,02,7.10
2019,03,21,07,03,7.10
2019,03,21,07,04,7.10
2019,03,21,07,05,7.20
2019,03,21,07,06,7.20
2019,03,21,07,07,7.20
2019,03,21,07,08,7.20
2019,03,21,07,09,7.10
2019,03,21,07,10,7.20
2019,03,21,07,11,7.20
2019,03,21,07,12,7.10
2019,03,21,07,13,7.10
2019,03,21,07,14,7.00
2019,03,21,07,15,6.90
2019,03,21,07,16,6.80
2019,03,21,07,17,6.60
2019,03,21,07,18,6.50
2019,03,21,07,19,6.40
2019,03,21,07,20,6.30
2019,03,21,07,21,6.30
2019,03,21,07,22,6.30
2019,03,21,07,23,6.20
2019,03,21,07,24,6.20
2019,03,21,07,25,6.10
2019,03,21,07,26,6.10
2019,03,21,07,27,6.10
2019,03,21,07,28,6.10
2019,03,21,07,29,6.10
2019,03,21,07,30,6.10
2019,03,21,07,31,6.20
2019,03,21,07,32,6.20
2019,03,21,07,33,6.30
2019,03,21,07,34,6.20
2019,03,21,07,35,6.20
2019,03,21,07,36,6.20
2019,03,21,07,37,6.30
2019,03,21,07,38,6.30
2019,03,21,07,39,6.30
2019,03,21,07,40,6.20
2019,03,21,07,41,6.20
2019,03,21,07,42,6.20
2019,03,21,07,43,6.10
2019,03,21,07,44,6.10
2019,03,21,07,45,6.10
2019,03,21,07,46,6.10
2019,03,21,07,47,6.10
2019,03,21,07,48,6.10
2019,03,21,07,49,6.10
2019,03,21,07,50,6.10
2019,03,21,07,51,6.10
2019,03,21,07,52,6.10
2019,03,21,07,53,6.20
2019,03,21,07,54,6.20
2019,03,21,07,55,6.30
2019,03,21,07,56,6.40
2019,03,21,07,57,6.40
2019,03,21,07,58,6.40
2019,03,21,07,59,6.40
2019,03,21,08,00,6.50
2019,03,21,08,01,6.50
2019,03,21,08,02,6.50
2019,03,21,08,03,6.60
2019,03,21,08,04,6.60
2019,03,21,08,05,6.60
2019,03,21,08,06,6.60
2019,03,21,08,07,6.60
2019,03,21,08,08,6.70
2019,03,21,08,09,6.70
2019,03,21,08,10,6.70
2019,03,21,08,11,6.70
2019,03,21,08,12,6.80
2019,03,21,08,13,6.80
2019,03,21,08,14,6.90
2019,03,21,08,15,6.90
2019,03,21,08,16,7.00
2019,03,21,08,17,7.10
2019,03,21,08,18,7.10
2019,03,21,08,19,7.20
2019,03,21,08,20,7.20
2019,03,21,08,21,7.20
2019,03,21,08,22,7.20
2019,03,21,08,23,7.20
2019,03,21,08,24,7.30
2019,03,21,08,25,7.40
2019,03,21,08,26,7.50
2019,03,21,08,27,7.60
2019,03,21,08,28,7.70
2019,03,21,08,29,7.80
2019,03,21,08,30,7.90
2019,03,21,08,31,7.90
2019,03,21,08,32,8.00
2019,03,21,08,33,8.10
2019,03,21,08,34,8.20
2019,03,21,08,35,8.30
2019,03,21,08,36,8.50
2019,03,21,08,37,8.60
2019,03,21,08,38,8.90
2019,03,21,08,39,9.10
2019,03,21,08,40,9.40
2019,03,21,08,41,9.50
2019,03,21,08,42,9.60
2019,03,21,08,43,9.70
2019,03,21,08,44,9.70
2019,03,21,08,45,9.80
2019,03,21,08,46,9.90
2019,03,21,08,47,10.00
2019,03,21,08,48,10.10
2019,03,21,08,49,10.20
2019,03,21,08,50,10.20
2019,03,21,08,51,10.30
2019,03,21,08,52,10.50
2019,03,21,08,53,10.60
2019,03,21,08,54,10.60
2019,03,21,08,55,10.70
2019,03,21,08,56,10.70
2019,03,21,08,57,10.70
2019,03,21,08,58,10.80
2019,03,21,08,59,10.80
2019,03,21,09,00,10.80
2019,03,21,09,01,10.80
2019,03,21,09,02,10.80
2019,03,21,09,03,10.90
2019,03,21,09,04,10.90
2019,03,21,09,05,11.00
2019,03,21,09,06,11.10
2019,03,21,09,07,11.20
2019,03,21,09,08,11.30
2019,03,21,09,09,11.30
2019,03,21,09,10,11.40
2019,03,21,09,11,11.50
2019,03,21,09,12,11.60
2019,03,21,09,13,11.70
2019,03,21,09,14,11.70
2019,03,21,09,15,11.80
2019,03,21,09,16,11.90
2019,03,21,09,17,11.90
2019,03,21,09,18,12.00
2019,03,21,09,19,12.20
2019,03,21,09,20,12.20
2019,03,21,09,21,12.30
2019,03,21,09,22,12.20
2019,03,21,09,23,12.20
2019,03,21,09,24,12.10
2019,03,21,09,25,12.10
2019,03,21,09,26,12.20
2019,03,21,09,27,12.20
2019,03,21,09,28,12.40
2019,03,21,09,29,12.40
2019,03,21,09,30,12.60
2019,03,21,09,31,12.70
2019,03,21,09,32,12.70
2019,03,21,09,33,12.70
2019,03,21,09,34,12.70
2019,03,21,09,35,12.80
2019,03,21,09,36,12.80
2019,03,21,09,37,12.70
2019,03,21,09,38,12.60
2019,03,21,09,39,12.30
2019,03,21,09,40,12.20
2019,03,21,09,41,12.10
2019,03,21,09,42,12.10
2019,03,21,09,43,12.10
2019,03,21,09,44,12.00
2019,03,21,09,45,11.90
2019,03,21,09,46,11.90
2019,03,21,09,47,11.90
2019,03,21,09,48,11.90
2019,03,21,09,49,12.00
2019,03,21,09,50,12.00
2019,03,21,09,51,12.10
2019,03,21,09,52,12.20
2019,03,21,09,53,12.30
2019,03,21,09,54,12.40
2019,03,21,09,55,12.60
2019,03,21,09,56,12.60
2019,03,21,09,57,12.70
2019,03,21,09,58,12.80
2019,03,21,09,59,12.90
2019,03,21,10,00,12.90
2019,03,21,10,01,12.90
2019,03,21,10,02,13.00
2019,03,21,10,03,13.10
2019,03,21,10,04,13.20
2019,03,21,10,05,13.20
2019,03,21,10,06,13.30
2019,03,21,10,07,13.30
2019,03,21,10,08,13.40
2019,03,21,10,09,13.40
2019,03,21,10,10,13.30
2019,03,21,10,11,13.30
2019,03,21,10,12,13.30
2019,03,21,10,13,13.30
2019,03,21,10,14,13.40
2019,03,21,10,15,13.40
2019,03,21,10,16,13.30
2019,03,21,10,17,13.20
2019,03,21,10,18,13.20
2019,03,21,10,19,13.10
2019,03,21,10,20,13.10
2019,03,21,10,21,13.10
2019,03,21,10,22,13.20
2019,03,21,10,23,13.20
2019,03,21,10,24,13.30
2019,03,21,10,25,13.40
2019,03,21,10,26,13.40
2019,03,21,10,27,13.40
2019,03,21,10,28,13.30
2019,03,21,10,29,13.20
2019,03,21,10,30,13.10
2019,03,21,10,31,13.10
2019,03,21,10,32,13.00
2019,03,21,10,33,13.10
2019,03,21,10,34,13.10
2019,03,21,10,35,13.20
2019,03,21,10,36,13.40
2019,03,21,10,37,13.50
2019,03,21,10,38,13.70
2019,03,21,10,39,13.80
2019,03,21,10,40,13.90
2019,03,21,10,41,14.10
2019,03,21,10,42,14.00
2019,03,21,10,43,13.80
2019,03,21,10,44,13.50
2019,03,21,10,45,13.40
2019,03,21,10,46,13.30
2019,03,21,10,47,13.40
2019,03,21,10,48,13.50
2019,03,21,10,49,13.60
2019,03,21,10,50,13.80
2019,03,21,10,51,13.90
2019,03,21,10,52,14.00
2019,03,21,10,53,14.20
2019,03,21,10,54,14.30
2019,03,21,10,55,14.30
2019,03,21,10,56,14.30
2019,03,21,10,57,14.60
2019,03,21,10,58,14.80
2019,03,21,10,59,14.90
2019,03,21,11,00,14.90
2019,03,21,11,01,14.90
2019,03,21,11,02,14.90
2019,03,21,11,03,14.80
2019,03,21,11,04,14.80
2019,03,21,11,05,14.70
2019,03,21,11,06,14.40
2019,03,21,11,07,14.30
2019,03,21,11,08,14.10
2019,03,21,11,09,14.00
2019,03,21,11,10,14.10
2019,03,21,11,11,14.10
2019,03,21,11,12,14.10
2019,03,21,11,13,14.10
2019,03,21,11,14,14.10
2019,03,21,11,15,14.10
2019,03,21,11,16,14.10
2019,03,21,11,17,14.20
2019,03,21,11,18,14.20
2019,03,21,11,19,14.20
2019,03,21,11,20,14.30
2019,03,21,11,21,14.40
2019,03,21,11,22,14.50
2019,03,21,11,23,14.60
2019,03,21,11,24,14.60
2019,03,21,11,25,14.60
2019,03,21,11,26,14.80
2019,03,21,11,27,14.90
2019,03,21,11,28,15.00
2019,03,21,11,29,15.10
2019,03,21,11,30,15.10
2019,03,21,11,31,15.10
2019,03,21,11,32,15.20
2019,03,21,11,33,15.10
2019,03,21,11,34,15.10
2019,03,21,11,35,15.20
2019,03,21,11,36,15.20
2019,03,21,11,37,15.20
2019,03,21,11,38,15.20
2019,03,21,11,39,15.20
2019,03,21,11,40,15.30
2019,03,21,11,41,15.40
2019,03,21,11,42,15.70
2019,03,21,11,43,15.80
2019,03,21,11,44,15.90
2019,03,21,11,45,16.00
2019,03,21,11,46,15.90
2019,03,21,11,47,15.70
2019,03,21,11,48,15.50
2019,03,21,11,49,15.40
2019,03,21,11,50,15.30
2019,03,21,11,51,15.30
2019,03,21,11,52,15.30
2019,03,21,11,53,15.40
2019,03,21,11,54,15.40
2019,03,21,11,55,15.40
2019,03,21,11,56,15.60
2019,03,21,11,57,15.60
2019,03,21,11,58,15.60
2019,03,21,11,59,15.80
2019,03,21,12,00,15.90
2019,03,21,12,01,16.10
2019,03,21,12,02,16.30
2019,03,21,12,03,16.30
2019,03,21,12,04,16.40
2019,03,21,12,05,16.50
2019,03,21,12,06,16.50
2019,03,21,12,07,16.50
2019,03,21,12,08,16.40
2019,03,21,12,09,16.40
2019,03,21,12,10,16.30
2019,03,21,12,11,16.30
2019,03,21,12,12,16.40
2019,03,21,12,13,16.50
2019,03,21,12,14,16.80
2019,03,21,12,15,16.90
2019,03,21,12,16,17.00
2019,03,21,12,17,17.10
2019,03,21,12,18,17.00
2019,03,21,12,19,16.90
2019,03,21,12,20,16.90
2019,03,21,12,21,16.90
2019,03,21,12,22,17.00
2019,03,21,12,23,17.20
2019,03,21,12,24,17.30
2019,03,21,12,25,17.40
2019,03,21,12,26,17.50
2019,03,21,12,27,17.70
2019,03,21,12,28,17.70
2019,03,21,12,29,17.70
2019,03,21,12,30,17.70
2019,03,21,12,31,17.50
2019,03,21,12,32,17.20
2019,03,21,12,33,17.10
2019,03,21,12,34,17.10
2019,03,21,12,35,17.10
2019,03,21,12,36,17.20
2019,03,21,12,37,17.20
2019,03,21,12,38,17.20
2019,03,21,12,39,17.20
2019,03,21,12,40,17.10
2019,03,21,12,41,17.00
2019,03,21,12,42,16.90
2019,03,21,12,43,16.80
2019,03,21,12,44,16.80
2019,03,21,12,45,16.80
2019,03,21,12,46,16.90
2019,03,21,12,47,17.00
2019,03,21,12,48,17.00
2019,03,21,12,49,17.20
2019,03,21,12,50,17.30
2019,03,21,12,51,17.40
2019,03,21,12,52,17.30
2019,03,21,12,53,17.20
2019,03,21,12,54,17.10
2019,03,21,12,55,16.90
2019,03,21,12,56,16.90
2019,03,21,12,57,16.80
2019,03,21,12,58,16.80
2019,03,21,12,59,16.70
2019,03,21,13,00,16.70
2019,03,21,13,01,16.50
2019,03,21,13,02,16.40
2019,03,21,13,03,16.40
2019,03,21,13,04,16.20
2019,03,21,13,05,16.10
2019,03,21,13,06,16.10
2019,03,21,13,07,15.90
2019,03,21,13,08,15.90
2019,03,21,13,09,15.90
2019,03,21,13,10,15.80
2019,03,21,13,11,15.70
2019,03,21,13,12,15.70
2019,03,21,13,13,15.80
2019,03,21,13,14,15.70
2019,03,21,13,15,15.70
2019,03,21,13,16,15.60
2019,03,21,13,17,15.60
2019,03,21,13,18,15.60
2019,03,21,13,19,15.60
2019,03,21,13,20,15.70
2019,03,21,13,21,15.70
2019,03,21,13,22,15.80
2019,03,21,13,23,15.80
2019,03,21,13,24,15.70
2019,03,21,13,25,15.80
2019,03,21,13,26,15.80
2019,03,21,13,27,16.00
2019,03,21,13,28,16.00
2019,03,21,13,29,16.10
2019,03,21,13,30,16.10
2019,03,21,13,31,16.20
2019,03,21,13,32,16.20
2019,03,21,13,33,16.30
2019,03,21,13,34,16.20
2019,03,21,13,35,16.20
2019,03,21,13,36,16.10
2019,03,21,13,37,15.90
2019,03,21,13,38,15.80
2019,03,21,13,39,15.80
2019,03,21,13,40,15.70
2019,03,21,13,41,15.70
2019,03,21,13,42,15.90
2019,03,21,13,43,15.90
2019,03,21,13,44,15.90
2019,03,21,13,45,16.00
2019,03,21,13,46,16.00
2019,03,21,13,47,16.00
2019,03,21,13,48,16.00
2019,03,21,13,49,16.00
2019,03,21,13,50,15.90
2019,03,21,13,51,15.80
2019,03,21,13,52,15.80
2019,03,21,13,53,15.70
2019,03,21,13,54,15.80
2019,03,21,13,55,15.90
2019,03,21,13,56,16.00
2019,03,21,13,57,16.10
2019,03,21,13,58,16.30
2019,03,21,13,59,16.20
2019,03,21,14,00,16.10
2019,03,21,14,01,16.00
2019,03,21,14,02,16.00
2019,03,21,14,03,16.10
2019,03,21,14,04,16.20
2019,03,21,14,05,16.30
2019,03,21,14,06,16.30
2019,03,21,14,07,16.40
2019,03,21,14,08,16.30
2019,03,21,14,09,16.40
2019,03,21,14,10,16.40
2019,03,21,14,11,16.40
2019,03,21,14,12,16.40
2019,03,21,14,13,16.40
2019,03,21,14,14,16.40
2019,03,21,14,15,16.50
2019,03,21,14,16,16.40
2019,03,21,14,17,16.50
2019,03,21,14,18,16.50
2019,03,21,14,19,16.50
2019,03,21,14,20,16.50
2019,03,21,14,21,16.60
2019,03,21,14,22,16.60
2019,03,21,14,23,16.70
2019,03,21,14,24,16.70
2019,03,21,14,25,16.70
2019,03,21,14,26,16.80
2019,03,21,14,27,16.90
2019,03,21,14,28,16.90
2019,03,21,14,29,17.00
2019,03,21,14,30,17.10
2019,03,21,14,31,17.20
2019,03,21,14,32,17.20
2019,03,21,14,33,17.20
2019,03,21,14,34,17.30
2019,03,21,14,35,17.30
2019,03,21,14,36,17.20
2019,03,21,14,37,17.20
2019,03,21,14,38,17.20
2019,03,21,14,39,17.20
2019,03,21,14,40,17.10
2019,03,21,14,41,17.10
2019,03,21,14,42,17.20
2019,03,21,14,43,17.20
2019,03,21,14,44,17.30
2019,03,21,14,45,17.30
2019,03,21,14,46,17.30
2019,03,21,14,47,17.20
2019,03,21,14,48,17.20
2019,03,21,14,49,17.20
2019,03,21,14,50,17.20
2019,03,21,14,51,17.20
2019,03,21,14,52,17.20
2019,03,21,14,53,17.20
2019,03,21,14,54,17.20
2019,03,21,14,55,17.20
2019,03,21,14,56,17.20
2019,03,21,14,57,17.20
2019,03,21,14,58,17.20
2019,03,21,14,59,17.20
2019,03,21,15,00,17.30
2019,03,21,15,01,17.30
2019,03,21,15,02,17.30
2019,03,21,15,03,17.30
2019,03,21,15,04,17.30
2019,03,21,15,05,17.30
2019,03,21,15,06,17.20
2019,03,21,15,07,17.20
2019,03,21,15,08,17.30
2019,03,21,15,09,17.30
2019,03,21,15,10,17.30
2019,03,21,15,11,17.30
2019,03,21,15,12,17.30
2019,03,21,15,13,17.30
2019,03,21,15,14,17.30
2019,03,21,15,15,17.40
2019,03,21,15,16,17.40
2019,03,21,15,17,17.40
2019,03,21,15,18,17.30
2019,03,21,15,19,17.20
2019,03,21,15,20,17.10
2019,03,21,15,21,17.10
2019,03,21,15,22,17.10
2019,03,21,15,23,17.20
2019,03,21,15,24,17.30
2019,03,21,15,25,17.30
2019,03,21,15,26,17.30
2019,03,21,15,27,17.20
2019,03,21,15,28,17.20
2019,03,21,15,29,17.20
2019,03,21,15,30,17.20
2019,03,21,15,31,17.30
2019,03,21,15,32,17.30
2019,03,21,15,33,17.20
2019,03,21,15,34,17.20
2019,03,21,15,35,17.20
2019,03,21,15,36,17.30
2019,03,21,15,37,17.40
2019,03,21,15,38,17.50
2019,03,21,15,39,17.40
2019,03,21,15,40,17.40
2019,03,21,15,41,17.20
2019,03,21,15,42,17.10
2019,03,21,15,43,17.10
2019,03,21,15,44,17.10
2019,03,21,15,45,17.00
2019,03,21,15,46,17.00
2019,03,21,15,47,16.90
2019,03,21,15,48,16.80
2019,03,21,15,49,16.80
2019,03,21,15,50,16.80
2019,03,21,15,51,16.80
2019,03,21,15,52,16.80
2019,03,21,15,53,16.90
2019,03,21,15,54,17.00
2019,03,21,15,55,17.00
2019,03,21,15,56,17.00
2019,03,21,15,57,17.10
2019,03,21,15,58,17.10
2019,03,21,15,59,17.10
2019,03,21,16,00,17.10
2019,03,21,16,01,17.10
2019,03,21,16,02,17.10
2019,03,21,16,03,17.10
2019,03,21,16,04,17.00
2019,03,21,16,05,17.00
2019,03,21,16,06,17.10
2019,03,21,16,07,17.20
2019,03,21,16,08,17.20
2019,03,21,16,09,17.30
2019,03,21,16,10,17.30
2019,03,21,16,11,17.30
2019,03,21,16,12,17.30
2019,03,21,16,13,17.30
2019,03,21,16,14,17.30
2019,03,21,16,15,17.30
2019,03,21,16,16,17.30
2019,03,21,16,17,17.30
2019,03,21,16,18,17.20
2019,03,21,16,19,17.20
2019,03,21,16,20,17.10
2019,03,21,16,21,17.10
2019,03,21,16,22,17.20
2019,03,21,16,23,17.20
2019,03,21,16,24,17.20
2019,03,21,16,25,17.20
2019,03,21,16,26,17.20
2019,03,21,16,27,17.30
2019,03,21,16,28,17.30
2019,03,21,16,29,17.40
2019,03,21,16,30,17.40
2019,03,21,16,31,17.40
2019,03,21,16,32,17.40
2019,03,21,16,33,17.30
2019,03,21,16,34,17.30
2019,03,21,16,35,17.30
2019,03,21,16,36,17.30
2019,03,21,16,37,17.30
2019,03,21,16,38,17.20
2019,03,21,16,39,17.10
2019,03,21,16,40,17.00
2019,03,21,16,41,17.00
2019,03,21,16,42,16.80
2019,03,21,16,43,16.80
2019,03,21,16,44,16.80
2019,03,21,16,45,16.70
2019,03,21,16,46,16.70
2019,03,21,16,47,16.60
2019,03,21,16,48,16.50
2019,03,21,16,49,16.40
2019,03,21,16,50,16.30
2019,03,21,16,51,16.30
2019,03,21,16,52,16.30
2019,03,21,16,53,16.20
2019,03,21,16,54,16.20
2019,03,21,16,55,16.20
2019,03,21,16,56,16.20
2019,03,21,16,57,16.20
2019,03,21,16,58,16.20
2019,03,21,16,59,16.10
2019,03,21,17,00,16.00
2019,03,21,17,01,16.00
2019,03,21,17,02,16.00
2019,03,21,17,03,15.90
2019,03,21,17,04,15.90
2019,03,21,17,05,15.90
2019,03,21,17,06,15.90
2019,03,21,17,07,15.90
2019,03,21,17,08,15.80
2019,03,21,17,09,15.80
2019,03,21,17,10,15.80
2019,03,21,17,11,15.70
2019,03,21,17,12,15.70
2019,03,21,17,13,15.60
2019,03,21,17,14,15.50
2019,03,21,17,15,15.50
2019,03,21,17,16,15.50
2019,03,21,17,17,15.40
2019,03,21,17,18,15.40
2019,03,21,17,19,15.40
2019,03,21,17,20,15.30
2019,03,21,17,21,15.40
2019,03,21,17,22,15.30
2019,03,21,17,23,15.30
2019,03,21,17,24,15.20
2019,03,21,17,25,15.20
2019,03,21,17,26,15.10
2019,03,21,17,27,15.10
2019,03,21,17,28,15.00
2019,03,21,17,29,15.00
2019,03,21,17,30,15.00
2019,03,21,17,31,14.90
2019,03,21,17,32,14.90
2019,03,21,17,33,14.80
2019,03,21,17,34,14.70
2019,03,21,17,35,14.70
2019,03,21,17,36,14.60
2019,03,21,17,37,14.60
2019,03,21,17,38,14.60